Location: Laura�t
(43.9341°N, 0.2497°E)
Time: 22:45:03
(UTC+00:00)

ATLAS CENTAUR R/B - Pass Details

Date: 03 March 2021
Orbit: 475 x 670 km, 64.7° (Epoch: 30 March)

Event Time Altitude Azimuth Distance (km) Brightness Sun altitude
Rises 18:17:20 0° 185° (S) 2,526 4.8 -5.7°
Reaches altitude 10° 18:19:42 10° 172° (S) 1,641 3.7 -6.1°
Maximum altitude 18:22:44 25° 116° (ESE) 991 2.1 -6.7°
Drops below altitude 10° 18:25:46 10° 59° (ENE) 1,651 3.2 -7.2°
Enters shadow 18:27:02 - 51° (NE) 2,109 3.8 -7.4°
